Location: Moscow
(55.7500°N, 37.5830°E)
Time: 15:40:48
(UTC+03:00)

Transit 2A - Pass Details

Date: 01 December 2021
Orbit: 591 x 967 km, 66.7° (Epoch: 17 January)

Event Time Altitude Azimuth Distance (km) Brightness Sun altitude
Rises 00:00:25 0° 158° (SSE) 3,333 - -55.9°
Reaches altitude 10° 00:03:48 10° 136° (SE) 2,483 - -55.9°
Maximum altitude 00:06:59 15° 102° (ESE) 2,194 - -56.0°
Drops below altitude 10° 00:10:18 10° 69° (ENE) 2,614 - -56.0°
Sets 00:14:00 0° 48° (NE) 3,614 - -56.0°
